Flag for Poland Weather past 2 weeks in Olsztyn, Poland

Now
87 °F

Pleasantly warm.


Feels Like: 85 °F
Forecast: 63 / 90 °F
Wind: 5 mph from East

Location: Ketrzyn

Current Time: Aug 4, 2015 at 4:55:35 PM

Latest Report: Aug 4, 2015 at 4:00 PM


Visibility: 16 mi

Pressure: 30.03 "Hg

Humidity: 34%

Dew point: 55 °F

Location of OlsztynLocation

Historic Weather in Olsztyn — Graph

°F

Olsztyn temperature yesterday

Maximum temperature yesterday: 85 °F (at 3:00 PM)
Minimum temperature yesterday: 58 °F (at 3:00 AM)
Average temperature yesterday: 73 °F

Past Weeks' High & Low Weather Summary

 TemperatureHumidityPressure
High87 °F (Aug 4, 2:00 PM)97% (Jul 23, 9:00 AM)30.22 "Hg (Jul 23, 9:00 AM)
Low48 °F (Aug 1, 5:00 AM)30% (Aug 2, 5:00 PM)29.56 "Hg (Jul 28, 2:00 PM)
Average63 °F71%29.90 "Hg
* Reported Jul 20 3:00 PM — Aug 4 3:00 PM, Olsztyn, Weather by CustomWeather, © 2015

Note: Actual official high and low records may vary slightly from our data, if they occured in-between our weather recording intervals... More about our weather records

Advertising

Olsztyn weather history for previous 24 hours

 ConditionsComfort  
Time TempWeatherWind HumidityBarometerVisibility
3:00 PM
Tue, Aug 4
87 °FPleasantly warm.5 mph33%30.04 "Hg19 mi
2:00 PM87 °FPleasantly warm.6 mph36%30.06 "Hg16 mi
1:00 PM85 °FPleasantly warm.6 mph36%30.07 "Hg19 mi
12:00 PM84 °FWarm.5 mph41%30.09 "Hg17 mi
11:00 AM82 °FWarm.3 mph43%30.09 "Hg17 mi
10:00 AM80 °FWarm.3 mph50%30.11 "Hg19 mi
9:00 AM75 °FMild.2 mph59%30.11 "Hg14 mi
8:00 AM69 °FMild.2 mph77%30.12 "Hg13 mi
7:00 AM59 °FFog.No wind93%30.13 "Hg5 mi
5:00 AM55 °FCool.No wind96%30.14 "Hg1 mi
4:00 AM56 °FFog.No wind95%30.14 "Hg1 mi
3:00 AM56 °FFog.No wind95%30.14 "Hg2 mi
2:00 AM57 °FFog.1 mph93%30.15 "Hg2 mi
1:00 AM60 °FCool.1 mph89%30.15 "Hg7 mi
12:00 AM61 °FCool.2 mph85%30.15 "Hg9 mi
10:00 PM
Mon, Aug 3
68 °FMild.1 mph68%30.14 "Hg19 mi
9:00 PM71 °FMild.1 mph65%30.14 "Hg13 mi
8:00 PM75 °FMild.3 mph57%30.12 "Hg25 mi
7:00 PM79 °FWarm.5 mph52%30.11 "Hg19 mi
6:00 PM81 °FWarm.5 mph46%30.11 "Hg18 mi
5:00 PM83 °FWarm.3 mph45%30.11 "Hg16 mi
4:00 PM82 °FPleasantly warm.3 mph36%30.11 "Hg19 mi
Weather by CustomWeather, © 2015

See weather overviewHow to use our weather pages